Home   Weather   Chita   Past weeks
Flag for Russia

Past Weather in Chita, Russia — Yesterday and Last 2 Weeks

Now
64 °F

Scattered clouds.


Feels Like: 64 °F
Forecast: 73 / 54 °F
Wind: 6 mph from Northeast

Location: Chita Airport

Current Time: Jun 27, 2019 at 11:21:54 am

Latest Report: Jun 27, 2019 at 10:30 am


Visibility: N/A

Pressure: 29.68 "Hg (27.45 "Hg at 666m altitude)

Humidity: 78%

Dew Point: 57 °F

Location of ChitaLocation

Past Weather in Chita — Graph

°F

Chita Temperature Yesterday

Maximum temperature yesterday: 66 °F (at 6:30 pm)
Minimum temperature yesterday: 57 °F (at 8:00 am)
Average temperature yesterday: 61 °F

High & Low Weather Summary for the Past Weeks

 TemperatureHumidityPressure
High90 °F (Jun 21, 4:00 pm)100% (Jun 26, 8:00 am)29.98 "Hg (Jun 26, 8:00 am)
Low41 °F (Jun 14, 5:30 am)17% (Jun 18, 2:30 pm)29.56 "Hg (Jun 26, 4:00 am)
Average67 °F58%29.79 "Hg
* Reported Jun 12 10:00 am — Jun 27 10:00 am, Chita. Weather by CustomWeather, © 2019

Note: Actual official high and low records may vary slightly from our data, if they occured in-between our weather recording intervals... More about our weather records

Advertising

Chita Weather History for the Previous 24 Hours

Scroll right to see more
 ConditionsComfort  
Time TempWeatherWind HumidityBarometerVisibility
10:00 am
Thu, Jun 27
64 °FScattered clouds.6 mph78%29.68 "HgN/A
9:30 am63 °FScattered clouds.3 mph83%29.68 "HgN/A
9:00 am61 °FScattered clouds.6 mph83%29.68 "HgN/A
8:30 am59 °FScattered clouds.6 mph88%29.68 "HgN/A
8:00 am59 °FScattered clouds.6 mph88%29.68 "HgN/A
7:30 am59 °FScattered clouds.6 mph88%29.65 "HgN/A
7:00 am59 °FScattered clouds.6 mph88%29.65 "HgN/A
6:30 am59 °FScattered clouds.3 mph88%29.65 "HgN/A
6:00 am57 °FScattered clouds.1 mph94%29.65 "HgN/A
5:30 am57 °FScattered clouds.No wind94%29.65 "HgN/A
5:00 am57 °FPassing clouds.1 mph94%29.65 "HgN/A
4:30 am57 °FClear.3 mph94%29.65 "HgN/A
4:00 am57 °FClear.1 mph94%29.65 "HgN/A
3:30 am59 °FClear.3 mph88%29.65 "HgN/A
3:00 am59 °FClear.6 mph88%29.65 "HgN/A
2:30 am57 °FClear.3 mph94%29.65 "HgN/A
2:00 am57 °FClear.6 mph94%29.65 "HgN/A
1:30 am57 °FClear.3 mph94%29.65 "HgN/A
1:00 am57 °FClear.1 mph94%29.65 "HgN/A
12:30 am57 °FClear.6 mph94%29.65 "HgN/A
12:00 am57 °FClear.3 mph94%29.65 "HgN/A
11:30 pm
Wed, Jun 26
57 °FClear.3 mph94%29.68 "HgN/A
11:00 pm57 °FClear.1 mph94%29.68 "HgN/A
10:30 pm59 °FPassing clouds.3 mph88%29.65 "HgN/A
10:00 pm59 °FPassing clouds.6 mph88%29.65 "HgN/A
9:30 pm61 °FPassing clouds.3 mph88%29.65 "HgN/A
9:00 pm63 °FPassing clouds.8 mph83%29.65 "HgN/A
8:30 pm63 °FPassing clouds.8 mph83%29.65 "HgN/A
8:00 pm64 °FPassing clouds.6 mph83%29.65 "HgN/A
7:30 pm66 °FScattered clouds.6 mph78%29.62 "HgN/A
7:00 pm66 °FScattered clouds.6 mph73%29.62 "HgN/A
6:30 pm66 °FScattered clouds.6 mph78%29.62 "HgN/A
6:00 pm64 °FPartly sunny.3 mph83%29.62 "HgN/A
5:30 pm64 °FPartly sunny.6 mph83%29.62 "HgN/A
5:00 pm64 °FPartly sunny.6 mph83%29.62 "HgN/A
4:30 pm64 °FPartly sunny.6 mph83%29.62 "HgN/A
4:00 pm63 °FBroken clouds.6 mph88%29.62 "HgN/A
3:30 pm63 °FBroken clouds.6 mph83%29.62 "HgN/A
3:00 pm63 °FPartly sunny.6 mph88%29.62 "HgN/A
2:30 pm61 °FSprinkles. Broken clouds.6 mph94%29.62 "Hg3 mi
2:00 pm59 °FSprinkles. Broken clouds.6 mph100%29.62 "Hg3 mi
1:30 pm59 °FSprinkles. Broken clouds.6 mph100%29.62 "Hg3 mi
1:00 pm59 °FSprinkles. Broken clouds.6 mph100%29.62 "Hg3 mi
12:30 pm59 °FSprinkles. Broken clouds.6 mph94%29.62 "Hg3 mi
12:00 pm59 °FSprinkles. Partly sunny.8 mph100%29.62 "Hg3 mi
11:30 am59 °FSprinkles. Partly sunny.6 mph100%29.62 "Hg3 mi
11:00 am59 °FSprinkles. Partly sunny.8 mph94%29.59 "Hg3 mi
Weather by CustomWeather, © 2019

See weather overview